Theta_e
320 319 317 317 317 319 319 319 318 317 317 317 317 317 317 317 316 315 315 314 313 312 311 311 310 310 310 309 309 309 309 310 310 311 311 312 312 311 311 310 309 308 307 306 305 304 304 303 303 304 304 304 304 304 304 304 304 304 304 303 303 303 303 303 303 302 302 302 301 301 301 300 299 298 297 296 296 295 295 294 293 292 292 291 292 292
319 318 317 317 318 319 319 318 317 317 316 317 317 318 317 316 315 314 313 313 312 311 311 310 310 310 309 309 309 309 309 310 310 311 311 311 311 311 310 309 308 307 306 305 304 304 303 303 303 303 303 303 303 303 303 303 303 303 302 302 302 302 302 302 301 301 301 300 300 299 299 298 297 296 295 295 294 294 293 292 292 291 291 291 291 291
318 317 316 317 318 318 318 317 316 316 316 317 317 317 316 315 315 314 313 312 311 311 311 310 310 309 309 309 309 309 309 309 309 310 311 311 311 310 309 308 307 306 305 304 304 303 303 303 303 303 303 303 303 303 302 302 302 302 301 301 301 301 301 301 300 300 299 299 298 298 297 296 295 295 294 294 293 292 292 291 291 290 290 290 290 290
316 316 317 317 318 318 317 316 315 315 315 316 316 316 316 315 314 313 312 312 311 311 310 310 310 309 308 308 308 308 308 309 309 309 310 310 310 310 309 307 306 305 304 304 303 303 303 303 303 303 303 302 302 302 302 301 301 301 301 300 300 300 299 299 299 298 298 297 296 296 295 294 294 293 293 292 292 291 291 290 290 290 290 290 290 290
316 316 318 318 318 318 317 316 315 315 315 316 316 316 315 315 314 313 312 311 311 310 310 310 309 309 308 307 307 307 308 308 308 309 309 309 309 309 308 306 305 304 304 303 303 303 303 302 302 302 302 302 301 301 301 301 300 300 299 299 298 298 297 297 296 296 295 295 294 294 293 293 292 292 292 291 291 291 290 290 290 290 290 290 290 290
316 317 317 318 318 317 317 316 316 315 315 315 316 316 316 315 314 313 312 311 311 310 310 309 309 309 308 307 307 306 307 307 308 308 309 309 309 308 307 305 304 304 303 303 303 302 302 302 302 302 301 301 301 300 300 299 298 298 297 296 296 295 295 294 294 294 293 293 292 292 292 291 291 291 290 290 290 290 290 290 290 290 290 290 290 290
316 317 317 317 317 317 317 316 316 315 315 315 316 316 316 315 314 314 313 312 311 310 309 309 309 308 308 307 306 306 306 306 307 308 308 308 308 307 305 304 303 303 303 302 302 302 302 302 301 301 300 300 299 298 297 296 295 295 294 293 293 293 292 292 292 292 291 291 291 291 290 290 290 290 290 290 290 290 290 290 290 290 290 290 289 289
316 316 317 317 317 317 317 316 315 314 314 315 315 316 316 315 314 314 313 312 311 310 309 308 308 308 307 307 306 305 305 306 306 307 308 308 307 306 304 303 303 302 302 302 302 301 301 301 300 299 299 297 296 295 294 293 292 292 291 291 291 291 291 291 291 291 290 290 290 290 290 290 290 290 290 290 290 290 290 290 290 290 290 290 289 289
315 316 316 317 317 316 316 315 314 313 313 314 314 315 316 315 314 314 313 312 311 310 309 308 308 307 307 306 305 305 305 306 306 306 307 307 306 305 303 303 302 302 302 301 301 301 300 299 298 297 296 294 293 292 291 290 290 290 290 290 290 290 290 290 290 290 290 290 290 290 290 290 290 290 290 290 290 290 290 290 290 290 290 289 289 289
315 315 315 316 316 316 315 314 313 313 312 313 313 314 315 315 314 313 312 312 311 310 310 309 308 307 306 306 305 305 305 306 306 307 306 306 305 304 303 302 302 301 301 301 300 299 298 297 296 294 292 291 290 290 290 290 290 290 290 290 290 290 290 290 290 290 290 290 290 290 290 290 290 290 290 290 290 290 289 289 289 289 289 289 289 289
314 315 315 315 315 314 313 313 312 312 312 312 312 313 313 313 313 312 312 311 310 310 309 309 308 307 307 306 306 306 306 306 306 306 306 305 304 303 302 302 301 301 301 300 299 298 296 295 293 291 290 289 289 289 289 289 290 290 290 290 290 290 290 290 290 290 290 290 290 290 290 290 290 290 290 290 290 289 289 289 289 289 289 289 289 289
314 314 314 314 313 312 312 311 311 311 311 311 311 312 312 312 312 312 311 311 310 310 309 309 308 308 307 307 306 306 306 306 306 305 304 304 303 302 301 301 301 300 300 299 297 296 294 292 291 290 289 289 289 289 289 289 289 290 290 290 290 290 290 290 290 290 290 290 290 290 290 290 290 290 290 290 290 289 289 289 289 289 289 289 289 289
313 312 312 312 312 311 310 310 310 310 310 311 311 312 312 312 312 311 311 310 310 310 309 309 308 307 307 306 306 306 306 305 305 304 303 302 302 301 301 300 300 299 298 297 296 294 292 291 290 289 289 289 289 289 289 289 289 289 289 290 290 290 290 290 290 290 290 290 290 290 290 290 290 290 290 290 290 289 289 289 289 289 289 290 290 290
311 311 311 311 311 310 310 309 309 310 310 311 311 311 311 311 311 311 310 310 310 309 309 308 307 307 306 305 305 305 305 304 303 303 302 302 301 301 300 299 299 298 297 296 294 292 291 290 289 289 289 289 289 289 289 289 289 289 289 289 289 290 290 290 290 290 290 290 290 290 290 290 290 290 290 290 290 290 289 289 289 290 290 290 290 290
310 310 310 309 309 310 310 310 309 309 310 310 310 310 310 310 310 310 310 310 309 309 308 307 306 305 305 305 304 304 304 303 303 302 302 301 301 300 299 299 298 297 296 294 293 291 290 289 289 289 289 289 289 289 289 289 289 289 289 289 289 290 290 290 290 290 290 290 290 290 290 290 290 290 290 290 290 290 290 290 290 290 290 290 290 290
310 310 309 309 309 309 310 310 309 309 309 310 310 310 310 309 309 309 309 309 309 308 307 306 305 304 304 304 304 303 303 303 302 302 301 300 300 299 299 298 297 296 295 293 292 290 289 289 289 289 289 289 289 289 289 289 289 289 289 289 289 289 290 290 290 290 290 290 290 290 290 290 290 290 290 290 290 290 290 290 290 290 291 291 291 290
310 310 309 309 309 309 309 309 309 309 309 309 309 309 309 308 308 308 308 308 308 308 307 306 305 304 303 303 303 303 303 303 302 301 300 300 299 299 298 297 296 295 294 292 291 290 289 289 289 289 289 289 289 289 289 289 289 289 289 289 289 289 289 289 290 290 290 290 290 290 290 290 290 290 290 290 290 290 291 291 291 291 291 291 291 291
310 310 309 309 308 308 308 309 309 308 308 308 308 308 308 308 308 308 308 308 308 307 306 306 305 304 303 303 303 304 303 302 301 300 300 299 298 298 297 296 295 294 293 291 290 289 289 289 289 289 289 289 289 289 289 288 289 289 289 289 289 289 289 289 290 290 290 290 290 290 290 290 290 290 291 291 291 291 291 291 291 291 291 291 291 291
309 309 309 309 308 308 308 308 308 308 308 308 308 307 307 307 307 307 307 307 307 306 306 305 304 304 303 304 304 304 303 302 301 299 299 298 297 297 296 295 294 293 292 291 290 289 289 289 289 289 289 289 289 288 288 288 289 289 289 289 289 289 289 290 290 290 290 290 290 290 290 291 291 291 291 291 291 291 291 291 291 291 291 291 291 291
309 308 308 308 307 307 307 308 308 308 308 308 307 307 307 307 307 306 306 306 306 305 305 304 304 304 304 305 305 304 302 300 299 298 297 297 296 295 295 294 293 292 291 290 289 289 289 289 289 289 289 288 288 288 288 288 289 289 289 289 289 289 289 290 290 290 290 290 290 290 291 291 291 291 291 291 291 291 291 291 291 291 291 291 291 291
308 308 308 307 307 307 307 308 308 308 308 307 307 307 307 306 306 306 306 306 305 305 304 303 303 304 305 305 304 302 300 299 298 297 296 296 295 294 293 293 292 291 290 289 289 289 289 289 289 289 288 288 288 288 288 289 289 289 289 289 289 289 290 290 290 290 290 290 290 291 291 291 291 291 291 291 291 291 291 291 291 291 291 291 291 291
308 308 307 307 307 307 307 307 307 308 307 307 307 307 307 306 306 306 306 305 305 304 304 303 303 304 304 303 302 300 299 298 297 296 296 295 294 293 292 291 290 290 289 289 288 288 288 288 288 288 288 288 288 288 288 289 289 289 289 289 289 290 290 290 290 290 290 290 291 291 291 291 291 291 291 291 291 291 291 291 291 291 291 291 291 291
307 307 307 307 307 307 307 307 307 307 307 307 307 307 306 306 306 306 306 305 305 304 304 305 305 304 303 302 300 299 299 298 297 296 295 294 294 293 292 290 290 289 289 288 288 288 288 288 288 288 288 288 288 288 288 289 289 289 289 289 290 290 290 290 290 290 290 291 291 291 291 291 291 291 291 291 291 291 291 291 291 291 291 291 291 291
306 306 307 307 307 307 307 307 307 307 307 307 307 307 306 306 306 305 305 305 305 304 304 304 303 303 302 301 300 299 298 297 296 295 294 294 293 292 291 290 289 289 288 288 288 288 288 288 288 288 288 288 288 288 289 289 289 289 289 290 290 290 290 290 290 290 290 291 291 291 291 291 291 291 291 291 291 291 291 291 291 291 291 291 291 291
305 306 306 306 306 307 307 307 307 307 307 307 307 307 306 306 305 305 304 304 304 303 303 303 302 301 300 300 299 298 297 296 295 294 294 293 292 291 290 289 289 288 288 288 288 288 288 288 288 288 288 288 288 288 289 289 289 289 290 290 290 290 290 290 290 290 291 291 291 291 291 291 291 291 291 291 291 291 291 291 291 291 291 291 291 291
305 305 305 305 305 305 306 306 306 306 306 306 306 306 306 305 305 304 304 303 303 302 302 301 301 300 299 299 298 297 296 295 294 293 292 292 291 290 289 289 288 288 288 288 288 288 288 288 288 288 288 288 289 289 289 289 289 289 290 290 290 290 290 290 290 290 290 291 291 291 291 291 291 291 291 291 291 291 291 291 291 291 291 291 291 290
304 304 304 304 305 304 305 305 305 305 305 305 305 305 305 304 304 303 303 302 302 301 301 300 299 299 298 297 297 296 295 294 293 292 291 290 290 289 289 288 288 288 288 288 288 288 288 288 288 288 288 289 289 289 289 289 289 290 290 290 290 290 290 290 290 290 290 290 291 291 291 291 291 291 291 291 291 291 291 291 291 291 291 290 290 290
304 304 304 304 304 303 303 303 303 303 303 303 303 303 303 303 303 302 302 301 300 300 299 298 298 297 297 296 295 295 294 293 292 291 290 289 289 289 288 288 288 288 288 288 288 288 288 288 288 288 288 289 289 289 289 289 290 290 290 290 290 290 290 290 290 290 290 290 290 290 291 291 291 291 291 291 291 291 291 291 290 290 290 290 290 290
303 303 303 303 303 302 302 302 302 302 302 302 302 302 302 301 301 301 300 299 298 298 297 296 296 295 295 294 294 293 293 292 291 290 289 289 289 289 288 288 288 288 287 287 288 288 288 288 288 288 288 289 289 289 289 289 290 290 290 290 290 290 290 290 290 290 290 290 290 290 290 290 290 291 291 291 291 291 291 291 290 290 290 290 290 290
302 302 301 301 301 301 301 301 300 300 300 300 300 300 300 299 299 298 297 297 296 295 295 294 294 293 293 293 292 292 291 291 290 289 289 289 289 288 288 288 288 288 288 287 287 288 288 288 288 288 288 288 289 289 289 289 290 290 290 290 290 290 290 290 290 290 290 290 290 290 290 290 290 290 291 291 291 291 291 291 290 290 290 290 290 290
300 300 299 299 299 299 299 298 298 298 298 298 297 297 297 297 297 296 295 295 294 293 293 293 292 292 291 291 291 291 291 290 290 289 289 289 289 288 288 288 288 288 288 287 287 287 288 288 288 288 288 288 288 289 289 289 290 290 290 290 290 290 290 290 290 290 290 290 290 290 290 290 290 291 291 291 291 291 291 290 290 290 290 290 290 290
298 298 297 296 296 295 295 295 295 295 295 295 295 295 294 294 294 294 294 293 293 292 292 291 291 291 290 290 290 290 290 290 289 289 288 288 288 288 288 288 288 288 288 288 287 287 288 288 288 288 288 288 288 289 289 289 289 290 290 290 290 290 290 290 290 290 290 290 290 290 290 290 290 291 291 291 291 291 291 290 290 290 290 290 290 290
296 295 294 293 293 292 292 292 292 292 292 292 292 292 292 292 292 292 292 291 291 291 291 291 290 290 290 289 289 289 289 289 289 288 288 288 288 288 288 288 288 288 288 288 288 288 288 288 288 288 288 288 288 288 289 289 289 289 289 290 290 290 290 290 290 290 290 290 290 290 290 290 290 291 291 291 291 291 290 290 290 290 290 290 290 290
293 292 291 291 290 290 290 290 290 290 290 290 290 290 291 291 291 290 290 290 290 290 290 290 290 289 289 289 289 289 289 288 288 288 288 288 288 288 288 288 288 288 288 288 288 288 288 288 288 288 288 288 288 288 289 289 289 289 289 289 290 290 290 290 290 290 290 290 290 290 290 290 290 290 290 290 290 290 290 290 290 290 290 290 290 290
291 290 290 289 289 289 289 289 289 289 289 289 289 289 289 290 290 289 289 289 289 290 290 290 289 289 289 289 288 288 288 288 288 288 288 288 288 288 288 288 288 288 288 288 288 288 288 288 288 288 288 288 288 289 289 289 289 289 289 289 289 290 290 290 290 290 290 290 290 290 290 290 290 290 290 290 290 290 290 290 290 290 290 290 289 289
289 289 289 289 288 288 288 288 289 289 289 288 288 288 289 289 289 289 289 289 289 289 289 289 289 289 289 288 288 288 288 288 288 288 288 288 288 288 288 288 288 288 288 288 288 288 288 287 287 288 288 288 288 288 289 289 289 289 289 289 289 289 289 290 290 290 290 290 290 290 290 290 290 290 290 290 290 290 290 290 290 290 290 289 289 289
289 289 288 288 288 288 288 288 288 288 288 288 288 288 288 288 288 288 288 288 288 288 288 288 288 288 288 288 288 288 288 288 288 288 288 288 288 288 288 288 288 288 288 288 288 288 288 287 287 287 287 288 288 288 288 288 288 289 289 289 289 289 289 289 289 289 289 290 290 290 290 290 290 290 290 290 290 290 290 290 290 290 290 289 289 289
288 288 288 288 288 288 288 288 288 288 288 288 288 288 288 288 288 288 288 288 288 288 288 288 288 288 288 288 288 288 288 288 288 288 288 288 288 288 288 288 288 288 288 288 288 288 288 287 287 287 287 288 288 288 288 288 288 288 288 288 288 289 289 289 289 289 289 289 289 290 290 290 290 290 290 290 290 290 290 290 290 290 290 289 289 289
288 288 288 288 288 288 288 288 288 288 288 288 288 288 288 288 288 288 288 288 288 288 287 287 287 288 288 288 288 288 288 288 288 288 288 288 288 288 288 288 288 288 288 288 288 288 288 288 288 288 288 288 288 288 288 288 288 288 288 288 288 288 288 288 289 289 289 289 289 289 290 290 290 290 290 290 290 290 290 290 290 290 290 289 289 289
288 288 288 288 288 288 288 288 288 288 288 288 288 288 288 288 288 288 287 287 287 287 287 287 287 287 287 288 288 288 288 288 288 288 288 288 288 288 288 288 288 288 288 288 288 288 288 288 288 288 288 288 288 288 288 288 288 288 288 288 288 288 288 288 288 289 289 289 289 289 289 289 290 290 290 290 290 290 290 290 290 290 289 289 289 289
288 288 288 288 288 288 288 288 288 288 288 288 288 288 288 287 287 287 287 287 287 287 287 287 287 287 287 287 288 288 288 288 288 288 288 288 288 288 288 288 288 288 288 288 288 288 288 288 288 288 288 288 288 288 288 288 288 288 288 288 288 288 288 288 288 289 289 289 289 289 289 289 289 289 289 289 290 289 289 289 289 289 289 289 289 289
288 288 288 288 288 288 288 288 288 288 288 288 287 287 287 287 287 287 287 287 287 287 287 287 287 287 287 287 288 288 288 288 288 288 288 288 288 288 288 288 288 288 288 288 288 288 288 288 288 288 288 288 288 288 288 288 288 288 288 288 288 288 288 288 288 288 288 289 289 289 289 289 289 289 289 289 289 289 289 289 289 289 289 289 289 289
287 288 288 288 288 288 288 288 288 288 287 287 287 287 287 287 287 287 287 287 287 287 287 287 287 287 287 287 287 288 288 288 288 288 288 288 288 288 288 288 288 288 288 288 287 288 288 288 288 288 288 288 288 288 288 288 288 288 287 287 287 287 287 288 288 288 288 288 288 288 289 289 289 289 289 289 289 289 289 289 289 289 289 289 289 289
287 288 288 288 288 288 287 287 287 287 287 287 287 287 286 286 286 286 286 286 286 286 287 287 287 287 287 287 287 288 288 288 288 288 288 288 288 288 288 288 288 288 288 288 288 287 287 287 287 288 288 288 288 288 287 287 287 287 287 287 287 287 287 287 288 288 288 288 288 288 288 289 289 289 289 289 289 289 289 289 289 289 289 289 289 289
287 287 287 287 287 287 287 287 287 287 287 286 286 286 286 286 286 286 286 286 286 286 286 287 287 287 287 287 287 288 288 288 288 288 288 288 288 288 288 288 288 288 288 288 288 288 288 288 288 288 288 288 287 287 287 287 287 287 287 287 287 286 287 287 287 288 288 288 288 288 288 288 289 289 289 289 289 289 289 289 289 289 289 289 289 289
287 287 287 287 287 287 287 286 286 286 286 286 286 286 286 286 286 286 286 286 286 286 286 286 287 287 287 287 287 288 288 288 288 288 288 288 288 288 288 288 288 288 288 288 288 288 288 288 288 288 288 288 288 287 287 287 287 287 287 287 286 286 286 287 287 287 288 288 288 288 288 288 288 288 289 289 289 289 289 289 289 289 289 288 288 288
287 287 287 287 286 286 286 286 286 286 286 286 286 286 286 286 286 286 286 286 286 286 286 286 287 287 287 287 287 288 288 288 288 288 288 288 288 288 288 288 288 288 288 288 288 288 288 288 288 288 288 288 288 287 287 287 287 286 286 286 286 286 286 286 287 287 287 287 288 288 288 288 288 288 288 289 289 289 289 288 288 288 288 288 288 288
287 287 286 286 286 286 286 286 286 286 286 286 286 286 286 286 286 286 286 286 286 286 286 287 287 287 287 287 288 288 288 288 288 288 289 289 289 289 289 289 288 288 288 288 288 288 288 288 288 288 288 288 288 287 287 287 287 286 286 286 286 286 286 286 286 286 287 287 287 287 288 288 288 288 288 288 288 288 289 288 288 288 288 288 288 288
286 286 286 286 286 286 285 285 285 286 286 286 286 286 286 286 286 286 286 286 286 287 287 287 287 287 287 288 288 288 288 288 289 289 289 289 289 289 289 289 289 289 289 289 289 289 289 289 289 289 288 288 288 288 287 287 287 286 286 286 286 286 286 286 286 286 286 286 287 287 287 288 288 288 288 288 288 288 288 288 288 288 288 288 288 288
286 286 286 286 286 285 285 285 285 285 286 286 286 286 286 286 286 286 286 286 287 287 287 287 287 287 287 288 288 288 288 289 289 289 289 289 289 289 289 289 289 289 290 290 290 290 290 290 290 290 289 289 289 289 288 287 287 287 287 286 286 286 286 286 286 286 286 286 286 287 287 287 287 288 288 288 288 288 288 288 288 288 288 288 288 288
286 286 286 286 285 285 285 285 285 286 286 286 286 286 286 286 286 286 286 287 287 287 287 287 287 287 288 288 288 288 289 289 289 289 289 289 289 290 290 290 290 291 291 291 291 292 292 292 291 291 291 290 290 289 289 288 288 288 287 287 287 287 287 286 286 286 286 286 286 287 287 287 287 287 287 287 288 288 288 288 288 288 288 288 288 288
Wind_Speed
24 23 22 20 19 19 19 19 19 18 16 15 15 15 15 15 15 16 16 17 17 17 16 16 16 17 17 18 18 19 19 19 20 20 19 18 17 16 15 15 14 14 13 13 13 13 12 12 13 13 15 16 17 18 19 19 19 18 18 18 19 19 20 20 20 19 19 19 19 19 20 20 19 18 17 16 15 14 14 14 13 12 11 10 9 9
24 23 22 20 20 20 20 20 19 17 16 15 15 15 15 15 15 15 16 16 16 16 16 16 16 16 17 18 18 18 19 19 20 20 19 18 17 16 16 15 14 13 13 12 12 12 12 12 12 12 13 14 16 16 17 17 17 18 18 18 19 19 20 20 20 20 21 21 21 21 20 20 19 18 17 16 15 14 14 13 12 11 10 9 8 8
25 24 22 21 21 21 20 20 19 17 16 15 14 14 14 14 14 15 15 15 16 16 16 16 16 16 17 18 18 18 19 19 20 20 20 19 18 17 15 14 13 12 12 12 12 12 12 12 12 13 14 15 15 16 16 17 17 18 18 18 19 19 20 20 20 21 21 21 21 20 19 18 18 17 16 16 15 14 13 12 11 10 9 8 8 8
25 24 23 22 22 22 21 19 18 17 15 14 14 13 13 13 14 14 14 15 15 16 16 17 17 17 17 18 18 18 19 19 20 20 20 19 18 17 15 14 13 12 12 12 12 12 12 12 12 13 14 15 16 17 17 17 18 18 18 19 19 20 20 20 20 20 20 20 20 19 18 17 17 16 16 15 14 13 12 11 10 9 8 8 7 7
24 24 23 23 22 21 21 19 17 16 15 14 13 13 13 13 13 14 14 15 16 16 17 17 17 17 17 17 18 18 19 20 20 20 20 19 18 17 15 13 12 12 12 12 12 11 11 12 13 14 15 16 17 17 18 18 18 18 19 19 19 19 20 20 20 19 19 19 18 18 17 16 16 15 15 14 13 12 11 10 9 8 8 7 7 7
25 24 23 23 22 21 20 18 16 15 14 14 14 13 13 13 14 14 15 15 16 17 17 18 18 17 17 17 18 18 19 20 21 21 20 19 18 16 14 13 12 12 12 11 11 11 12 12 14 15 16 17 17 18 18 18 18 18 18 18 18 18 18 18 18 18 18 17 17 16 16 15 14 14 13 13 12 12 11 10 9 8 7 7 6 6
25 24 24 23 22 21 19 17 16 15 14 14 13 14 14 14 14 15 15 16 16 17 17 17 18 18 17 17 18 19 20 20 21 21 20 19 17 15 14 13 12 12 11 11 11 11 12 13 14 16 17 17 18 18 17 17 17 17 16 16 16 16 16 16 16 16 16 15 15 15 14 14 13 13 12 12 11 11 10 9 8 7 7 6 6 6
25 25 24 23 21 20 18 17 17 16 15 14 14 14 15 15 15 15 16 16 16 17 17 17 18 18 18 18 18 19 20 21 21 21 20 19 17 15 13 12 12 11 11 11 11 11 13 14 15 16 17 17 17 16 16 15 15 14 14 14 14 14 14 14 14 14 13 13 13 13 13 12 12 12 11 11 10 10 9 9 8 7 6 6 5 5
25 24 24 22 21 19 18 18 18 17 16 15 14 14 15 16 16 16 16 16 16 17 17 18 18 19 19 19 19 20 21 22 22 21 20 18 16 14 13 13 12 11 11 11 11 12 13 14 15 16 16 15 15 14 14 13 13 12 12 12 12 12 12 12 12 12 12 12 12 11 11 11 11 11 10 10 9 9 8 8 7 7 6 6 5 5
24 23 23 22 21 20 19 19 18 18 16 16 15 15 16 16 16 16 16 17 17 18 18 18 19 19 20 20 21 21 22 22 22 21 19 17 15 14 13 13 12 11 11 11 12 13 14 14 15 14 14 13 12 12 12 11 11 11 11 10 10 11 11 11 10 10 10 10 10 10 10 10 10 10 9 9 8 8 8 7 7 6 6 5 5 5
23 23 23 23 22 21 20 19 18 18 17 16 16 17 17 17 17 17 17 18 18 19 19 19 19 20 21 21 22 22 22 22 21 20 18 16 15 14 14 13 12 12 12 12 13 13 14 14 13 13 12 11 11 10 10 10 10 9 9 10 9 9 9 9 9 9 9 9 9 9 9 9 9 9 8 8 7 7 7 7 6 6 6 6 6 6
23 24 24 23 22 21 20 19 19 18 18 18 18 18 19 19 19 19 18 19 19 20 19 19 19 20 21 22 22 22 21 21 20 19 17 16 15 15 14 13 12 12 12 12 13 13 13 13 12 11 10 10 9 9 9 9 9 9 9 9 9 9 9 8 8 8 8 8 8 8 8 8 8 8 7 7 6 6 6 6 6 6 5 5 5 5
24 24 24 23 23 22 21 20 19 19 19 20 20 21 21 21 20 20 19 19 20 20 19 19 19 20 21 21 21 21 20 19 18 17 16 16 15 14 13 13 12 12 12 13 13 13 12 12 11 10 9 9 8 8 8 8 8 8 8 8 8 8 8 7 7 7 7 7 7 7 7 7 7 6 6 6 5 5 5 5 5 5 5 5 5 5
25 25 24 24 23 23 22 21 21 21 21 22 21 21 21 21 20 20 20 20 20 20 19 19 19 20 20 20 20 20 19 18 17 16 16 15 15 14 13 12 12 12 13 13 13 13 12 11 10 10 9 8 8 8 8 8 8 8 8 8 7 7 7 6 6 6 6 6 6 6 6 6 6 6 5 5 5 5 5 5 5 5 5 5 5 5
25 25 24 24 24 24 23 23 22 22 22 22 22 22 22 21 21 20 20 21 20 19 19 19 20 20 20 20 20 19 18 18 17 16 16 15 15 14 13 13 13 13 13 13 13 12 11 11 10 9 9 8 8 8 8 8 8 7 7 7 7 6 6 6 6 6 6 6 6 5 5 5 5 5 5 5 5 4 4 5 5 5 5 5 4 4
26 25 24 24 24 24 24 24 23 23 23 23 23 23 23 22 21 20 21 21 21 20 20 20 21 20 20 21 20 19 18 18 17 16 16 15 15 14 13 13 13 13 13 13 12 12 11 10 10 9 9 9 8 8 8 7 7 7 7 7 6 6 6 5 5 5 5 5 5 5 5 5 5 5 5 4 4 4 4 5 5 5 5 4 4 4
26 26 25 24 24 24 25 24 24 24 24 24 24 23 22 21 20 20 21 21 21 21 21 22 22 21 21 21 21 20 18 18 17 16 16 15 15 14 13 13 13 13 13 13 12 12 11 11 10 9 9 8 8 8 8 7 7 7 7 6 6 6 5 5 5 5 5 5 5 5 5 5 5 5 5 5 5 5 5 5 5 5 5 4 4 4
26 25 24 23 23 23 24 24 23 24 24 24 23 22 21 20 20 21 22 22 21 21 22 22 22 22 22 22 22 20 18 17 16 16 16 15 15 14 14 14 14 13 13 12 12 11 11 11 10 9 9 8 8 8 7 7 7 7 7 6 6 6 6 6 6 6 5 5 5 5 5 5 5 5 5 5 5 5 5 5 5 5 5 5 4 4
25 24 22 21 21 22 22 22 22 22 22 22 21 20 20 20 21 22 23 22 21 21 22 22 22 22 22 22 21 18 16 15 15 15 15 15 15 14 14 14 14 13 13 12 12 11 11 11 10 9 9 8 8 8 7 7 7 7 7 7 6 6 6 6 6 6 6 6 6 5 5 5 5 5 5 5 5 5 5 5 5 5 5 5 5 5
22 22 21 20 19 19 20 20 19 19 19 19 19 19 20 21 22 23 23 22 22 21 22 22 22 22 22 21 18 15 14 14 15 15 15 15 14 14 14 14 14 13 13 12 12 11 11 10 10 9 9 8 8 8 8 8 8 7 7 7 7 7 7 6 6 6 6 6 6 6 6 5 5 5 5 5 5 5 5 5 5 5 5 5 5 5
21 20 20 19 18 18 18 18 18 17 17 17 18 19 20 21 22 23 23 23 22 22 22 22 22 22 21 18 15 13 14 15 15 15 15 15 14 14 14 14 13 13 13 12 11 11 11 10 10 9 9 9 8 8 8 8 8 8 8 8 7 7 7 7 7 7 6 6 6 6 6 5 5 5 5 5 5 5 5 5 5 5 6 6 6 6
19 19 19 19 18 18 18 18 17 17 17 17 18 20 21 22 22 22 23 22 22 22 22 22 22 21 17 15 14 14 16 16 16 15 15 15 15 14 13 13 13 13 12 12 11 11 11 10 10 9 9 9 8 8 8 8 8 8 8 8 8 7 7 7 7 7 7 6 6 6 6 6 5 5 5 5 5 5 5 6 6 6 6 6 6 7
18 18 19 18 17 17 18 18 18 17 17 18 18 19 20 21 21 21 21 21 21 22 22 21 20 17 16 15 16 16 17 17 16 16 15 15 15 14 13 13 13 13 12 12 11 11 11 10 10 10 9 9 9 9 9 9 9 9 8 8 8 8 7 7 7 7 7 6 6 6 6 6 6 6 6 6 6 6 6 6 6 6 6 6 7 7
17 18 18 17 16 17 17 18 17 17 17 18 19 19 20 20 20 20 20 20 20 20 19 18 17 17 17 18 18 18 18 18 17 16 16 16 15 14 13 13 13 12 12 11 11 11 11 11 10 10 9 9 9 9 9 9 9 9 9 8 8 8 7 7 7 7 7 6 6 6 6 6 6 6 6 6 6 6 6 6 6 6 6 7 7 7
16 16 16 16 16 16 16 17 17 17 17 17 18 19 19 19 19 19 19 19 19 18 18 18 18 19 19 19 19 19 19 18 17 16 16 16 15 14 13 13 13 12 12 11 11 11 11 11 10 10 10 9 9 9 9 9 9 9 9 8 8 8 8 7 7 7 7 7 6 6 6 6 6 6 6 6 6 6 6 6 6 6 6 7 7 7
15 15 15 15 15 15 16 16 16 16 16 17 17 18 18 18 18 18 19 19 19 19 19 19 20 20 20 20 20 19 18 17 16 16 16 16 15 14 13 13 13 12 12 12 12 11 11 11 10 10 10 10 10 10 10 10 9 9 9 9 8 8 8 8 7 7 7 7 7 7 7 6 6 6 7 7 7 7 7 7 7 7 7 7 7 7
15 15 15 15 15 15 15 15 15 15 15 15 16 16 17 18 18 19 19 19 19 19 19 20 20 21 20 20 20 19 17 16 16 15 15 15 15 14 13 13 13 12 12 12 12 12 11 11 11 10 10 10 10 10 10 10 10 10 9 9 9 8 8 8 8 7 7 7 7 7 7 7 7 7 7 7 7 7 7 7 7 7 7 7 7 8
15 15 15 15 15 15 14 14 14 14 14 15 15 16 17 17 18 19 19 19 19 19 20 20 20 20 20 20 19 17 17 16 15 15 15 15 15 14 13 13 13 12 12 12 12 12 12 11 11 11 10 10 10 10 11 10 10 10 10 9 9 9 8 8 8 8 7 7 7 7 7 7 7 7 7 7 7 7 7 7 7 7 7 7 7 8
15 15 15 15 15 14 14 14 14 14 14 15 15 16 17 17 18 18 17 17 17 18 19 19 19 19 18 18 17 16 16 16 15 15 15 15 15 14 12 13 13 13 13 12 12 12 12 12 11 11 11 11 11 11 11 11 11 10 10 10 9 9 9 8 8 8 8 8 8 7 7 7 7 7 7 7 7 7 7 6 7 7 7 7 8 8
15 15 14 14 14 14 14 15 15 15 15 15 16 17 17 17 17 17 16 16 17 17 18 18 18 17 16 16 16 16 17 16 16 15 15 15 15 13 13 13 13 13 13 13 12 12 12 12 12 11 11 11 11 11 11 11 11 10 10 10 9 9 9 8 8 8 8 8 8 8 8 8 7 7 7 7 7 7 7 6 6 7 7 7 8 8
15 15 14 14 15 15 15 15 15 15 16 16 16 17 17 17 17 17 17 17 17 17 17 17 16 16 15 16 16 17 17 16 15 15 15 15 15 13 13 13 13 13 13 13 13 13 12 12 12 12 12 12 11 11 11 11 11 10 10 10 9 9 9 9 8 8 8 8 8 8 8 8 8 8 7 7 7 7 7 7 6 7 7 7 8 8
15 15 15 15 15 15 15 16 16 16 16 16 16 17 17 17 17 18 18 18 18 18 17 16 16 16 16 16 17 17 16 14 14 15 15 15 14 13 13 13 13 13 13 13 14 13 12 12 12 11 11 11 11 11 11 11 10 10 10 10 9 9 9 9 8 8 8 8 8 8 8 8 8 8 8 8 7 7 7 7 7 7 7 7 8 8
15 16 16 15 16 16 16 15 15 16 16 16 16 17 17 17 17 18 18 18 18 18 18 17 17 16 16 16 16 15 14 13 14 15 15 15 14 13 13 13 13 13 13 13 13 13 13 12 11 11 11 11 11 11 11 11 10 10 10 10 9 9 9 9 9 8 8 8 8 8 8 8 8 8 8 8 8 8 8 7 7 7 7 7 8 8
16 16 16 16 16 16 16 16 16 16 16 16 17 17 17 17 17 17 18 18 18 18 17 17 17 16 16 16 15 15 14 13 14 15 15 14 14 13 13 13 13 13 13 13 13 13 13 12 11 11 11 11 11 11 11 10 10 10 10 10 10 10 9 9 9 9 9 9 8 8 9 9 9 9 9 9 9 8 8 8 8 8 8 8 8 8
16 16 16 16 16 16 16 16 16 17 17 17 17 17 17 17 17 17 17 17 17 17 17 17 16 15 15 15 15 15 14 13 14 14 14 14 13 13 13 13 13 13 13 13 13 13 12 12 11 11 11 11 11 11 10 10 10 10 10 10 10 10 10 10 10 9 9 9 9 9 9 9 9 9 9 9 9 9 9 9 9 8 8 8 8 8
16 16 16 16 16 16 16 17 17 17 17 17 17 17 17 17 17 17 17 17 17 17 17 16 15 15 14 14 14 14 13 13 13 13 13 13 13 13 13 13 13 13 13 13 13 13 12 12 11 11 11 11 10 10 10 10 11 11 11 11 11 11 11 11 10 10 10 10 10 10 10 10 10 10 10 10 10 10 10 10 9 9 9 9 9 9
16 16 16 16 16 16 16 16 17 17 17 17 17 17 17 17 17 17 17 17 16 16 16 15 15 14 14 14 13 13 13 13 13 13 13 13 13 13 12 13 13 13 13 13 12 12 12 11 11 11 11 11 11 10 10 10 11 11 11 11 11 11 11 11 11 11 11 11 11 11 11 11 11 11 11 11 11 11 11 10 10 10 10 9 9 9
16 16 16 16 16 16 16 16 16 17 17 17 17 16 16 16 16 16 16 16 16 16 15 14 14 14 13 13 13 13 13 13 13 13 12 12 12 12 12 12 12 12 12 12 12 11 11 11 11 11 11 11 11 11 10 11 11 11 12 12 12 12 11 11 11 11 11 11 12 11 11 11 11 11 11 11 11 11 11 11 11 11 11 10 10 10
16 15 15 15 16 16 16 16 16 16 16 16 16 16 16 16 16 16 16 16 16 15 14 14 13 13 13 13 13 12 12 12 12 12 12 12 12 12 12 12 12 12 11 11 11 10 10 10 10 10 10 10 11 11 11 11 12 12 12 12 12 12 12 11 11 12 12 12 12 12 12 12 12 12 12 12 12 12 12 12 12 12 12 11 11 11
15 15 15 15 15 16 16 16 16 16 16 16 16 16 16 16 16 16 16 15 15 14 14 13 13 13 13 13 13 12 12 12 12 12 12 12 12 12 12 12 12 11 11 10 10 10 10 10 10 10 10 10 11 11 11 11 12 12 13 12 12 12 12 12 12 12 12 12 12 12 12 12 12 13 13 13 13 13 13 13 13 13 13 12 12 12
15 15 15 15 15 15 15 16 16 16 16 16 16 16 16 16 16 15 15 14 14 13 13 13 12 12 12 12 12 12 12 12 12 12 12 12 12 12 12 12 11 11 10 10 10 10 10 10 10 10 11 11 11 11 11 12 12 12 13 13 13 13 12 12 12 12 13 13 13 13 13 13 13 13 13 14 14 14 14 14 14 14 14 13 13 13
15 15 15 15 15 15 16 16 16 16 16 16 16 16 16 16 15 15 14 14 13 13 13 12 12 12 12 12 12 12 12 12 12 12 12 12 12 12 11 11 11 10 10 10 10 10 10 10 11 11 11 11 12 12 12 12 13 13 13 13 13 13 13 13 13 13 13 13 14 14 14 14 14 14 14 14 14 14 14 14 14 14 14 14 14 14
15 15 15 15 15 16 16 16 16 16 16 16 16 16 16 16 15 15 14 14 13 13 13 12 12 12 12 12 12 12 12 12 12 12 11 11 11 11 11 11 10 10 10 10 10 10 10 10 11 11 12 12 12 12 12 13 13 13 13 13 13 13 14 14 14 13 13 14 14 14 14 14 14 14 14 14 14 14 15 15 15 15 15 15 15 15
16 15 15 15 16 16 17 17 17 16 16 16 16 16 16 15 15 14 14 14 13 13 13 13 13 13 13 13 12 12 12 12 12 12 11 11 11 11 11 10 10 10 9 9 9 9 10 10 11 11 12 12 12 12 12 12 12 13 13 13 13 14 15 15 14 14 14 14 14 14 14 14 14 14 14 15 15 15 15 15 15 15 16 16 16 16
15 15 15 16 16 17 17 17 17 17 16 16 16 16 15 15 15 14 14 14 13 13 13 13 13 13 13 13 12 12 12 12 12 12 11 11 11 11 10 10 9 9 9 9 9 9 9 10 10 11 11 11 12 12 12 12 12 13 13 13 13 14 14 15 15 14 14 14 14 14 14 14 14 15 15 15 15 15 15 16 16 16 16 16 16 16
15 15 16 16 17 17 17 17 17 16 16 16 16 15 15 15 14 14 14 14 14 14 14 14 13 13 13 13 13 13 12 12 12 12 11 11 11 10 10 9 9 8 8 8 9 9 9 10 10 10 11 11 11 12 12 12 12 13 13 13 13 14 15 15 15 15 15 15 15 15 15 15 15 15 16 16 16 16 16 16 16 16 16 17 17 17
16 16 16 17 17 17 17 17 16 16 16 15 15 15 15 14 14 14 14 14 14 14 14 14 14 14 14 14 13 13 13 13 12 12 11 10 10 9 9 8 8 8 8 8 8 9 9 9 10 10 10 11 11 11 11 12 12 13 13 13 14 14 15 15 16 16 16 16 16 16 16 16 16 16 16 16 16 16 16 16 16 16 16 17 17 17
16 17 17 17 17 17 17 16 16 15 15 15 15 15 14 14 14 14 14 14 14 14 14 14 14 14 14 14 14 13 13 13 12 11 11 10 10 9 9 8 8 8 8 8 8 9 9 9 9 10 10 10 11 11 11 12 12 13 13 14 14 14 15 15 16 16 16 16 17 17 16 16 16 17 17 17 17 17 17 17 16 16 16 17 17 17
17 17 17 17 17 17 16 16 15 15 15 15 15 15 14 14 14 14 14 15 15 15 15 15 15 15 14 14 14 14 13 13 12 11 11 10 10 9 9 8 8 8 8 8 8 8 9 9 9 9 9 10 10 11 11 12 12 13 13 14 14 14 15 15 16 16 16 17 17 17 17 17 17 17 17 17 18 18 17 17 17 17 16 17 17 17
17 17 17 17 17 16 16 16 15 15 15 15 15 15 15 15 15 15 15 15 15 15 15 15 15 15 15 14 14 14 13 13 12 11 11 10 10 10 9 8 8 7 7 7 7 8 8 9 9 9 9 10 10 11 11 12 12 13 13 14 14 14 15 15 16 16 17 17 18 18 18 17 17 17 17 17 18 18 18 18 18 17 17 17 17 17
18 17 17 17 16 16 16 16 15 15 15 15 15 15 15 15 15 15 15 15 15 15 15 15 15 15 15 15 14 14 13 13 12 12 11 11 10 9 9 8 7 6 6 7 7 8 8 8 8 9 9 10 11 11 12 12 12 12 13 13 13 14 14 15 16 16 17 18 18 18 18 18 17 17 17 17 18 18 18 18 18 18 18 17 17 17
Wind_Direction
266 269 273 274 273 269 266 267 271 275 278 281 283 284 282 278 274 270 266 264 263 263 263 263 262 261 261 261 263 264 267 268 270 270 272 275 279 284 289 291 289 282 272 263 254 248 244 242 242 243 245 248 251 254 257 261 264 267 270 273 275 277 278 280 280 279 279 280 280 282 286 289 291 292 293 293 293 293 293 293 294 293 291 287 281 273
266 270 273 273 270 268 267 271 274 277 280 282 283 282 280 276 272 268 264 262 261 260 260 259 258 258 258 259 261 263 265 267 269 270 273 276 280 286 291 292 288 279 268 258 251 246 244 244 244 246 248 250 252 255 258 261 264 267 269 271 273 274 275 276 276 276 277 277 279 281 283 286 287 289 289 290 290 291 292 293 294 294 291 287 280 271
267 271 272 272 270 269 270 274 276 277 278 280 280 278 275 271 267 264 261 259 257 256 255 255 254 254 255 257 259 261 263 265 267 270 273 277 282 288 292 292 285 274 263 254 249 246 246 247 249 251 253 254 256 258 260 262 264 266 268 269 270 271 272 273 273 274 275 276 278 280 281 282 284 285 287 288 289 290 291 293 293 291 288 283 277 270
268 270 270 269 269 270 273 274 276 275 274 274 273 271 267 263 260 257 255 254 253 252 251 251 251 251 252 254 256 259 261 263 266 270 274 278 284 289 293 290 281 269 259 251 247 247 248 251 254 256 257 259 260 262 263 265 266 266 267 267 268 268 269 270 270 271 272 274 276 277 278 279 280 281 283 285 288 289 290 291 290 287 284 280 275 270
268 267 267 267 268 270 273 274 274 272 271 269 267 264 260 257 254 252 251 249 248 247 247 248 248 249 250 252 254 257 259 262 265 269 274 279 285 290 292 286 275 264 255 250 248 249 253 256 259 261 263 264 265 266 266 267 267 266 266 266 266 266 266 267 267 268 269 270 272 273 274 275 276 278 280 283 285 287 288 288 286 283 280 277 273 270
267 266 265 266 267 269 271 271 270 268 266 264 262 259 257 254 252 249 247 245 244 243 244 245 247 248 248 249 251 254 258 261 264 268 273 279 285 289 288 280 270 260 254 251 251 254 258 262 265 268 269 270 270 270 269 268 267 266 265 265 264 264 264 264 265 265 266 267 268 269 270 272 273 275 277 279 281 283 284 284 283 281 278 275 273 269
264 264 264 265 266 267 267 266 264 262 259 257 256 256 254 252 250 247 245 243 241 241 241 243 245 246 246 246 247 250 255 259 263 268 273 279 284 286 282 273 264 258 254 253 256 260 264 268 271 273 274 274 274 273 271 270 268 266 265 264 263 262 262 262 262 262 262 263 264 266 268 269 270 272 273 274 276 277 279 280 279 278 276 273 270 265
262 263 263 264 264 264 262 261 260 258 254 250 250 252 252 251 249 246 244 242 240 238 238 240 242 244 245 244 243 246 251 256 262 267 273 279 283 282 275 267 260 256 255 257 262 267 271 274 276 277 277 276 275 274 271 270 268 266 264 262 261 260 259 259 259 259 259 260 262 263 265 266 267 268 269 270 272 273 274 275 275 274 272 269 264 259
259 262 263 263 262 261 259 257 257 256 253 248 247 247 249 248 247 244 242 241 239 238 237 237 239 241 243 243 242 244 249 254 260 266 272 278 280 276 268 262 258 257 259 263 269 273 277 278 279 279 278 276 274 272 270 269 267 265 263 261 260 258 257 256 256 256 257 258 259 261 262 263 265 266 267 267 268 269 270 270 270 269 265 261 255 251
257 259 261 262 262 261 257 255 255 255 253 248 245 244 245 245 244 243 241 241 240 240 238 237 237 239 241 242 242 244 249 255 261 267 272 276 274 269 263 260 259 260 264 270 275 279 281 281 281 279 277 274 272 270 268 267 266 264 262 260 258 256 255 254 254 254 255 256 257 258 259 261 262 263 264 265 265 265 265 264 264 261 258 252 248 244
252 255 257 260 261 260 257 254 253 253 251 247 243 242 242 242 242 241 241 241 241 241 240 239 239 239 240 242 244 247 251 257 264 269 271 270 266 262 259 258 260 264 270 276 280 282 283 283 281 278 275 272 269 267 266 265 264 262 260 259 257 255 254 253 253 253 254 254 255 256 257 258 260 261 262 261 261 260 259 258 257 254 250 245 242 238
251 254 256 258 259 259 256 252 251 250 248 245 242 241 240 240 240 241 240 241 242 242 242 242 242 242 242 243 247 251 255 259 263 266 267 263 258 256 255 257 262 268 274 279 282 284 283 282 279 276 273 269 267 265 264 262 261 259 257 256 255 253 253 252 252 252 252 253 253 254 254 255 256 257 258 257 255 253 251 251 249 246 243 239 237 234
255 256 257 258 258 257 255 251 246 244 245 244 243 242 241 241 241 241 241 242 244 245 245 245 244 244 245 247 250 253 257 259 261 261 259 255 251 250 251 256 263 271 277 281 283 283 282 279 277 273 271 268 265 263 261 260 257 255 254 253 252 251 251 251 251 251 251 251 250 250 250 251 252 252 252 250 247 244 242 241 239 238 235 234 232 229
257 257 258 257 256 256 256 252 247 244 244 244 244 244 244 245 244 243 242 243 244 246 247 246 245 245 246 248 250 253 255 256 256 255 251 248 246 246 250 256 264 271 277 280 282 281 279 277 274 271 268 266 263 260 258 256 254 252 250 249 249 249 249 249 248 248 247 246 245 245 244 244 244 244 242 240 237 233 230 230 230 231 230 228 228 226
258 259 259 258 257 256 256 254 251 248 247 247 246 246 246 246 246 245 244 244 244 244 243 243 243 244 246 246 248 251 251 251 250 248 245 243 242 245 250 257 264 270 275 278 279 278 276 273 271 269 267 264 262 259 256 254 251 248 247 246 246 246 245 244 243 241 240 239 238 237 236 235 234 233 232 229 226 222 219 218 220 224 224 224 223 221
259 260 260 260 260 259 258 256 253 250 249 248 248 246 246 246 246 245 244 244 244 242 240 239 239 241 242 244 246 247 247 246 244 243 240 239 240 244 250 256 263 268 272 274 274 274 272 269 267 265 264 262 259 256 254 251 247 245 243 243 242 241 239 237 234 233 231 229 228 227 226 225 224 223 221 219 216 213 210 210 214 219 222 222 221 219
258 259 260 261 259 258 258 257 254 251 248 248 248 247 247 247 245 244 243 243 242 240 238 238 237 236 236 239 241 243 243 241 239 238 237 237 238 243 250 256 261 265 268 269 269 268 267 265 263 262 260 258 256 253 250 246 243 241 239 238 236 234 230 227 225 223 222 220 218 217 216 216 215 214 214 212 212 210 208 208 211 216 221 223 223 221
256 257 258 258 256 256 257 256 253 250 247 246 245 245 244 242 241 240 240 241 240 238 237 238 237 237 237 235 237 241 241 237 235 235 235 236 239 243 250 255 259 262 263 264 263 263 261 260 259 257 256 254 252 249 245 241 238 236 234 232 230 226 222 219 216 216 214 212 212 211 211 211 210 211 211 211 212 211 211 211 213 216 222 225 226 225
254 255 255 254 253 253 253 253 251 247 244 242 241 239 237 236 235 236 237 238 238 237 237 237 238 239 239 241 242 241 238 234 232 233 234 236 239 244 249 253 256 258 259 258 257 257 256 255 254 253 251 249 247 243 239 235 232 231 229 227 224 220 216 213 211 210 209 209 208 209 209 210 211 212 213 214 215 217 217 217 217 220 224 227 229 228
252 253 252 250 249 249 250 250 249 246 242 239 236 234 233 232 233 234 234 234 234 234 235 236 237 238 241 246 245 238 230 229 230 231 234 237 240 244 248 251 253 254 254 253 252 251 251 251 250 249 247 244 241 237 233 229 227 226 224 222 219 216 213 210 209 208 208 208 208 209 211 213 214 216 218 220 223 224 225 225 225 226 229 232 234 233
249 249 249 248 246 246 247 247 246 243 239 235 231 230 230 230 231 231 231 231 230 231 232 233 235 237 240 243 239 229 222 224 227 230 235 238 241 244 246 248 249 249 249 247 247 246 246 246 245 244 241 239 236 231 228 225 223 222 221 219 217 215 212 210 209 208 209 210 212 213 215 217 219 223 226 228 230 233 234 234 234 234 235 238 240 240
245 246 246 245 243 242 244 244 242 239 235 231 229 228 228 228 229 228 228 228 228 228 229 230 233 235 236 233 226 220 220 223 227 231 236 239 242 243 243 244 244 244 244 242 241 241 241 241 240 238 236 234 230 227 224 222 220 219 218 217 216 214 213 212 212 212 213 214 216 218 220 223 226 228 232 235 238 240 242 243 243 242 242 243 245 247
241 243 243 241 239 238 238 239 238 235 231 227 226 226 227 227 228 228 228 228 228 229 230 232 233 232 228 222 218 217 220 224 228 232 236 239 241 241 239 239 239 240 239 237 237 237 237 236 235 234 232 229 226 223 221 219 218 218 217 216 216 215 215 215 216 216 217 219 222 223 226 229 231 235 238 241 244 246 249 249 250 250 248 248 248 250
237 239 240 239 237 235 236 236 235 232 229 226 224 224 224 224 225 225 226 227 228 228 229 229 228 225 221 218 216 218 221 225 229 232 235 238 239 238 235 235 235 234 234 232 232 232 232 232 231 229 227 225 223 221 218 218 217 217 216 216 215 215 216 217 218 219 221 224 226 228 231 234 237 240 243 246 249 251 253 255 256 256 255 254 253 252
233 234 236 236 235 234 234 234 233 231 229 226 224 223 222 220 219 219 220 221 222 223 222 222 221 220 218 217 217 218 222 226 229 231 234 237 237 234 230 230 230 230 229 228 227 227 228 227 226 226 224 223 221 219 217 215 215 215 215 215 215 216 217 218 220 222 224 226 229 232 235 238 241 244 247 250 253 255 257 259 261 261 261 261 259 257
227 229 230 230 231 232 232 233 232 231 229 227 225 223 221 218 215 215 215 216 216 216 216 217 217 218 218 218 218 220 223 226 228 230 232 234 234 230 226 225 226 225 224 224 223 224 223 223 223 222 221 220 219 217 216 215 214 214 215 215 215 216 217 219 221 223 225 228 230 233 237 240 243 246 249 252 254 257 260 262 264 265 265 265 263 262
224 226 226 227 227 227 228 229 230 229 228 226 223 221 218 216 213 213 214 214 214 214 214 215 216 217 218 219 220 221 223 225 226 227 228 230 229 227 223 221 221 221 220 220 220 221 221 221 221 220 219 218 217 216 215 214 214 214 214 215 215 216 218 219 221 223 227 229 233 235 239 242 245 247 250 253 256 259 261 264 266 267 267 267 266 265
226 226 226 226 224 223 223 224 225 225 224 222 220 218 216 216 215 214 215 215 215 215 215 217 217 218 219 219 220 221 222 223 223 223 224 225 226 224 218 217 217 217 217 218 218 219 219 219 219 219 218 217 216 215 215 214 214 214 215 215 216 217 218 220 223 225 229 232 236 238 241 243 246 248 251 253 256 258 261 264 266 267 268 268 268 268
227 227 226 225 223 222 221 221 221 221 221 219 218 217 217 217 217 217 218 220 219 218 219 220 221 221 221 221 221 220 221 221 220 219 220 222 223 220 215 215 215 215 215 216 217 218 219 219 219 218 217 217 216 216 215 215 215 215 215 216 217 219 220 222 225 227 231 235 238 241 243 245 247 249 251 254 255 257 260 262 263 265 266 267 268 269
227 227 226 225 223 222 221 221 221 220 220 220 219 219 219 219 218 217 218 220 221 222 222 223 223 222 221 220 219 219 219 218 216 215 217 220 220 217 214 214 214 213 212 212 214 216 218 218 218 218 217 217 217 217 217 217 217 217 218 219 220 221 223 225 227 230 233 236 239 242 245 246 248 249 251 252 254 255 256 257 259 260 262 264 266 268
227 227 226 226 225 224 224 223 224 223 223 223 223 222 222 221 219 216 215 217 219 221 223 223 222 221 218 216 217 218 219 214 212 213 215 219 219 216 213 214 213 211 210 210 210 212 217 218 218 216 216 217 217 218 219 219 219 220 221 222 224 225 227 228 230 232 234 237 240 243 245 247 248 249 250 251 252 252 253 253 254 255 257 260 263 266
229 228 228 227 227 227 226 226 226 226 225 225 225 224 224 222 220 218 217 217 217 218 219 219 219 218 217 216 217 219 219 213 211 214 216 218 217 214 213 214 213 211 210 210 210 211 213 217 217 216 217 217 218 219 220 221 222 223 224 226 227 229 231 232 234 235 236 238 241 244 246 248 250 251 251 252 252 252 251 252 252 252 254 257 260 262
231 230 230 229 228 228 227 227 226 225 225 224 224 223 222 221 219 218 218 218 218 217 216 215 215 215 215 216 217 218 216 212 212 214 215 217 217 215 214 214 213 211 210 210 212 213 214 217 217 217 217 218 219 220 222 223 224 225 227 228 230 232 234 236 237 238 239 240 242 244 247 249 251 252 252 253 253 253 252 252 251 252 253 254 256 259
233 232 231 230 229 227 226 224 222 221 221 221 220 220 219 217 216 216 217 218 219 218 217 216 214 214 214 215 216 215 213 211 211 213 214 215 215 215 214 214 213 211 210 210 212 214 217 218 218 218 219 219 220 221 223 225 226 228 229 230 231 233 236 238 240 241 242 243 244 246 247 249 250 252 253 254 254 254 254 254 253 253 253 254 255 256
233 232 231 230 228 226 223 221 218 217 216 216 217 216 215 214 214 214 215 216 217 218 217 216 215 214 214 215 216 215 213 211 212 213 214 215 214 214 213 213 213 212 211 211 212 214 216 216 218 219 220 221 223 224 225 226 227 229 230 232 233 234 237 239 241 244 245 245 246 247 248 249 250 251 253 254 255 256 255 255 255 254 254 254 255 256
232 231 229 227 225 224 221 219 217 215 214 214 214 214 214 213 213 214 214 215 215 216 215 215 214 214 214 215 216 216 215 213 213 214 214 214 214 213 213 213 212 212 212 212 213 214 216 217 218 219 221 224 225 226 227 228 229 231 231 233 234 235 238 240 242 245 247 248 249 250 250 250 251 252 254 254 255 256 257 257 257 257 256 256 256 256
231 229 227 226 223 222 220 219 217 216 214 213 214 214 214 213 213 214 214 214 214 213 212 212 211 211 212 212 213 214 213 213 213 214 214 214 214 214 213 213 213 214 214 214 215 216 217 218 219 221 223 226 228 229 229 232 233 235 235 236 236 237 239 241 244 246 249 251 252 253 253 254 255 256 256 257 257 258 258 259 259 259 258 258 257 257
229 228 226 224 222 220 219 218 217 216 215 215 214 214 214 214 214 214 214 214 213 212 211 210 210 210 210 211 211 211 211 211 212 212 212 212 212 212 213 213 214 215 216 216 217 218 219 220 222 223 225 228 230 232 232 234 237 239 239 239 240 240 242 243 246 248 250 253 254 255 256 257 258 259 260 260 261 261 261 261 261 261 260 260 259 258
228 226 224 222 221 219 218 217 217 216 216 216 215 215 215 214 214 214 213 212 212 211 210 209 209 209 209 210 211 211 211 211 210 210 210 210 211 211 212 213 214 215 216 216 218 219 222 223 226 227 228 230 233 234 235 237 239 241 242 243 244 244 245 246 248 249 251 253 254 256 257 258 259 260 261 262 262 262 263 262 262 262 262 261 260 259
228 225 223 221 220 219 218 217 216 216 216 215 215 215 215 214 213 212 211 210 210 209 208 208 208 208 208 209 210 210 210 210 209 209 208 209 210 210 211 212 213 214 215 217 219 221 224 227 229 231 233 234 235 236 236 239 241 243 245 246 246 246 246 246 247 248 250 251 253 254 255 256 257 258 260 261 262 263 263 263 263 263 263 262 261 261
227 225 222 221 220 220 218 217 216 215 215 214 213 213 213 212 212 211 210 209 208 207 207 206 206 206 207 208 208 209 208 208 207 207 207 208 209 210 211 212 213 214 215 218 220 223 227 230 233 235 236 237 238 238 239 240 241 243 245 247 248 248 246 245 244 245 247 249 250 252 253 255 256 257 258 260 262 263 264 264 265 265 265 264 264 264
226 225 223 222 221 219 218 216 215 214 213 212 211 211 211 210 210 209 208 207 207 205 204 204 204 205 206 206 207 207 207 206 206 206 206 207 207 209 210 211 212 214 215 218 222 226 229 232 235 238 240 241 242 242 243 244 244 245 246 248 250 250 248 246 244 243 246 248 249 251 253 255 257 259 260 261 263 263 264 264 265 265 266 266 266 266
225 224 223 222 221 219 217 215 213 212 210 210 210 209 209 208 207 206 205 205 204 204 203 203 202 203 203 204 205 205 205 205 205 205 205 206 207 208 209 210 211 213 215 219 223 228 232 236 239 241 244 245 247 248 250 251 251 251 251 252 253 255 256 254 250 248 249 250 252 254 256 258 260 261 262 263 263 264 264 264 265 265 265 266 266 267
224 224 223 221 219 217 215 213 211 209 208 207 206 206 206 205 203 203 201 201 200 201 202 202 202 202 202 203 203 203 204 204 204 205 205 206 207 208 209 210 211 214 217 220 225 231 236 240 244 247 250 252 253 256 258 259 260 260 260 259 260 260 261 261 260 257 256 256 256 257 259 260 261 262 263 263 263 263 263 264 264 264 264 264 264 265
223 222 222 220 217 215 213 210 208 206 204 203 203 203 202 201 200 199 198 198 197 198 200 200 200 200 201 202 202 202 202 203 203 204 205 207 208 209 210 211 213 217 220 224 229 233 239 243 247 251 255 257 259 261 263 265 266 266 265 264 263 263 263 264 264 264 263 262 261 261 260 261 262 263 263 263 263 263 263 263 263 263 263 263 263 263
221 220 219 217 214 212 210 207 205 203 201 200 200 199 199 199 198 197 196 196 195 196 197 198 198 198 199 200 201 201 201 201 202 203 204 206 208 209 211 212 215 219 224 228 233 237 241 245 249 252 257 259 261 263 264 265 266 267 267 265 264 263 263 264 265 265 265 265 264 263 262 262 262 263 263 263 263 263 263 263 263 263 263 263 262 262
219 218 216 214 212 210 207 205 203 201 200 199 198 198 197 197 197 196 196 195 194 195 195 196 196 197 198 199 200 200 200 201 201 202 203 204 205 207 209 212 215 219 224 229 234 239 242 245 249 252 255 258 259 261 262 263 263 264 264 264 262 261 261 262 263 264 265 265 264 264 263 262 262 263 263 264 264 264 264 264 263 263 263 263 262 262
218 216 214 212 210 208 206 204 202 201 200 199 198 197 197 197 196 196 196 195 195 195 195 195 196 197 197 198 199 200 200 200 201 201 201 202 203 204 206 208 211 216 222 228 233 238 242 245 249 252 255 257 259 259 260 260 260 260 261 261 261 261 261 261 262 262 263 263 264 264 263 263 263 263 264 265 266 266 266 265 264 264 263 263 263 262
216 214 212 210 208 207 206 204 203 201 201 200 199 198 198 197 197 197 197 196 196 195 195 195 196 197 198 199 199 200 200 201 200 200 200 199 199 201 202 204 208 214 221 229 235 240 245 249 251 254 256 258 259 260 259 259 259 258 259 259 260 261 261 261 261 262 262 262 263 263 263 263 264 264 265 267 268 268 268 268 267 265 264 263 263 263
214 212 210 209 208 207 205 204 203 203 202 201 200 199 199 198 198 198 198 197 196 196 195 195 196 197 198 199 199 199 200 200 199 199 198 197 196 197 199 202 207 215 224 233 240 247 253 254 256 258 260 261 261 260 260 260 259 259 258 259 259 260 261 261 261 261 261 262 263 264 264 265 265 265 266 268 269 270 270 271 270 268 266 264 263 263
213 212 210 209 207 206 205 204 204 204 203 202 202 201 200 200 199 199 199 198 197 197 196 197 197 198 198 199 199 199 199 198 198 197 197 194 193 194 196 199 206 216 229 239 247 253 257 259 260 261 261 262 262 262 261 261 261 261 260 259 258 259 259 260 261 261 261 262 263 264 265 266 267 267 268 268 269 270 271 272 272 271 268 266 265 265